Notices

What's New in latest Release from April 7th, 2021:

- Updated Glossary, including Speed of Maximum Gust, and Total Hourly Precipitation

- Updated national and regional climate services offices contacts and prices information

- Addition of station inventory lists for 1981-2010, 1971-2000, and 1961-1990 Normals.

If you haven't already, please take our survey and provide feedback about our website: https://eccc.sondage-survey.ca/f/LanguageSelection.aspx?s=442ca660-fcf1-47c0-95a9-59707d6fd709

Hourly Data Report for November 20, 2020

CARBERRY CS
MANITOBA
Current Station Operator: ECCC - MSC

49°54'20.900" N
99°21'26.800" W
383.50 m
5010547
71170
WZE

Download Data

Hourly Data (November 2020)
Hourly Data Report for November 20, 2020
TIME
LST
Temp Definition
°C
Dew Point Definition
°C
Rel Hum Definition
%
Precip. Amount Definition
mm

Wind Dir Definition
10's deg

Wind Spd Definition
km/h
Visibility Definition
km
Stn Press Definition
kPa
Hmdx Definition


Wind Chill Definition


Weather Definition


00:00 -5.2 -5.3 100 0.0 1 3   97.23   -7 LegendNANA
01:00 -7.1 -8.5 90 0.4 36 20   97.35   -14 LegendNANA
02:00 -8.2 -9.5 91 0.2 36 18   97.49   -15 LegendNANA
03:00 -8.6 -10.6 86 0.2 34 12   97.62   -14 LegendNANA
04:00 -10.2 -12.2 85 0.0 32 7   97.74   -14 LegendNANA
05:00 -12.5 -13.4 93 0.0 30 6   97.88   -16 LegendNANA
06:00 -10.6 -13.0 82 0.0 31 7   97.99   -15 LegendNANA
07:00 -10.1 -12.4 83 0.0 28 7   98.07   -14 LegendNANA
08:00 -9.4 -11.9 82 0.0 30 8   98.17   -14 LegendNANA
09:00 -9.1 -11.7 81 0.0 29 12   98.25   -15 LegendNANA
10:00 -8.9 -12.0 78 0.0 32 7   98.36   -13 LegendNANA
11:00 -8.9 -13.0 72 0.0 28 15   98.42   -15 LegendNANA
12:00 -8.6 -13.0 71 0.0 28 12   98.46   -14 LegendNANA
13:00 -8.9 -13.4 70 0.0 30 12   98.43   -15 LegendNANA
14:00 -8.9 -12.8 73 0.0 30 11   98.41   -14 LegendNANA
15:00 -8.9 -13.5 69 0.0 25 12   98.43   -15 LegendNANA
16:00 -9.0 -13.2 72 0.0 25 10   98.43   -14 LegendNANA
17:00 -9.0 -11.9 79 0.0 25 9   98.48   -14 LegendNANA
18:00 -9.1 -12.7 75 0.0 25 6   98.46   -12 LegendNANA
19:00 -9.5 -12.4 79 0.0 20 6   98.43   -13 LegendNANA
20:00 -9.3 -12.0 81 0.0 20 8   98.38   -14 LegendNANA
21:00 -10.0 -12.4 83 0.0 20 7   98.38   -14 LegendNANA
22:00 -11.5 -13.8 83 0.0 20 9   98.34   -17 LegendNANA
23:00 -12.5 -14.6 85 0.0 21 11   98.31   -19 LegendNANA

Notes on Data Quality.

Legend

  • E = Estimated
  • M = Missing
  • NA = Not Available*
  • [empty] = Indicates an unobserved value
Date modified: